[Date Prev][Date Next][Thread Prev][Thread Next] - [Date Index][Thread Index][Author Index]
ISS 2 Line Keps 4/10
- Subject: [sarex] ISS 2 Line Keps 4/10
- From: "Dr Dave Larsen [ PhD ]" <doc@xxxxxxxxxxx>
- Date: Tue, 10 Apr 2001 04:37:39 -0700
ISS
1 25544U 98067A 01100.16190942 .00198068 00000-0 23222-2 0 8549
2 25544 51.5700 71.5317 0012562 259.5466 210.4001 15.60233295136450
----
Via the sarex mailing list at AMSAT.ORG courtesy of AMSAT-NA.
To unsubscribe, send "unsubscribe sarex" to Majordomo@amsat.org
AMSAT Home